Volver al catálogo

STARLINK-35651

ActivoComunicacionesVLEO
NORAD 66386·PAYLOAD·🇺🇸 United States

Lanzado Nov 8, 2025 desde Cape Canaveral Space Force Station

Loading…

Próximos Pases (próximas 24 horas)

TLE

ActualizadoSource: CelesTrak SupGP

Época: Sep 14, 2026, 23:05 UTC

1 66386C 25257G   26257.96229167  .00025059  00000+0  74070-3 0  2572
2 66386  53.1593  55.7720 0001191  80.1002 206.3931 15.34364233    15

Sigue STARLINK-35651 en tiempo real con AllMySat

Download on the App Store